Regional Weather Roundup
Issued by NWS

Home | Current Version | Previous Version | Text Only | Print | Product List | Glossary On
Versions: 1 2 3 4 5 6 7 8 9 10 11 12 13 14 15 16 17 18 19 20 21 22 23 24 25 26 27 28 29 30 31 32 33 34 35 36 37 38 39 40 41 42 43 44 45 46 47 48 49 50
000
ASUS44 KFWD 060703
RWRTX
NORTH TEXAS HOURLY WEATHER ROUNDUP
NATIONAL WEATHER SERVICE FORT WORTH TX
100 AM CST FRI MAR 06 2015

NOTE: "FAIR" INDICATES FEW OR NO CLOUDS BELOW 12,000 FEET WITH NO
SIGNIFICANT WEATHER AND/OR OBSTRUCTIONS TO VISIBILITY.

TXZ118-119-060800-
DALLAS/FORT WORTH METROPLEX

CITY           SKY/WX    TMP DP  RH WIND       PRES   REMARKS
DFW AIRPORT    CLEAR     29  21  72 SW7       30.58S WCI  22
DALLAS LOVE    PTCLDY    29  24  82 CALM      30.60S
FTW MEACHAM    CLEAR     30  22  72 SW5       30.59S WCI  25
DAL-EXECUTIVE  CLEAR     27  20  75 SW5       30.58S WCI  22
FTW-ALLIANCE   CLEAR     28  21  75 SW3       30.58S
FTW-SPINKS     CLEAR     25  23  92 SW5       30.61S WCI  20
ARLINGTON      CLEAR     26  20  77 CALM      30.59S
GRAND PRAIRIE  CLEAR     31  24  75 SW5       30.61S WCI  26
ADDISON        CLEAR     32  24  72 CALM      30.61R
MESQUITE       CLEAR     27  24  87 CALM      30.61S
LANCASTER      CLEAR     26  21  82 CALM      30.61S
$$

TXZ091>094-102>105-117-120-121-131>134-060800-
NORTH CENTRAL TEXAS

CITY           SKY/WX    TMP DP  RH WIND       PRES   REMARKS
SHRMAN/DENISON CLEAR     29  23  78 S5        30.58S WCI  24
GAINESVILLE    CLEAR     30  20  67 SW3       30.58S
BOWIE          CLEAR     27  22  80 S5        30.55S WCI  22
BRIDGEPORT     CLEAR     31  24  75 SW7       30.59S WCI  24
DECATUR        CLEAR     32  20  61 S8        30.56S WCI  25
DENTON         CLEAR     28  22  78 S3        30.58F
MCKINNEY       CLEAR     26  23  88 CALM      30.58F
GREENVILLE     CLEAR     27  25  93 CALM      30.59S
TERRELL        CLEAR     28  23  81 CALM      30.60S
WAXAHACHIE     CLEAR     26  24  89 SW3       30.61S
CLEBURNE       CLEAR     28  21  74 MISG      30.60F
GRANBURY       CLEAR     26  21  83 CALM      30.61F
$$

TXZ083>090-098>101-113>116-127>130-139>142-154-155-060800-
WESTERN NORTH TEXAS

CITY           SKY/WX    TMP DP  RH WIND       PRES   REMARKS
WICHITA FALLS  CLEAR     26  19  74 S8        30.53F WCI  18
WF-KICKAPOO    CLEAR     29  24  81 S7        30.55S WCI  22
VERNON         PTCLDY    29  19  66 S7        30.52S WCI  22
ABILENE        CLEAR     27  20  75 S6        30.53F WCI  20
ABILENE-DYESS  CLEAR     25  20  79 S3        30.51F
BRECKENRIDGE   CLEAR     30  23  74 S8        30.55S WCI  23
GRAHAM         CLEAR     28  23  81 SE3       30.54F
MINERAL WELLS  CLEAR     27  22  81 S5        30.57S WCI  22
STEPHENVILLE   CLEAR     26  22  86 CALM      30.59F
COMANCHE       CLEAR     28  20  75 S5        30.56F WCI  22
COLEMAN        CLEAR     30  23  76 CALM      30.55F
BRADY          CLEAR     28  18  64 CALM      30.53S
$$

TXZ143>147-156>162-174-175-060800-
CENTRAL TEXAS

CITY           SKY/WX    TMP DP  RH WIND       PRES   REMARKS
WACO           CLEAR     27  20  75 NW3       30.61S
WACO-MCGREGOR  CLEAR     27  19  74 NW6       30.60F WCI  20
HILLSBORO      CLEAR     29  23  77 CALM      30.60F
CORSICANA      CLEAR     28  22  78 NW6       30.60F WCI  22
MEXIA          CLEAR     29  23  79 MISG      30.58F
HEARNE         CLEAR     27  24  88 NW3       30.61F
CAMERON        CLEAR     28  24  84 NW5       30.60F WCI  23
TEMPLE         CLEAR     25  18  74 N6        30.58F WCI  18
KILLEEN        CLEAR     27  19  73 N10       30.56F WCI  17
KILLEEN-SKYLRK CLEAR     28  16  59 N5        30.56F WCI  23
FORT HOOD      CLEAR     26  21  82 N8        30.56F WCI  17
GATESVILLE     CLEAR     27  23  86 CALM      30.61F
HAMILTON       CLEAR     31  17  54 SE3       30.57F
LAMPASAS       CLEAR     30  23  74 N5        30.56F WCI  25
$$

TXZ095>097-106>112-122>126-135>138-148>153-164>167-060800-
EAST TEXAS

CITY           SKY/WX    TMP DP  RH WIND       PRES   REMARKS
PARIS          CLEAR     28  21  74 W3        30.58S
SULPHUR SPRNGS CLEAR     28  25  86 W3        30.61S
MOUNT PLEASANT CLEAR     28  24  87 W3        30.60S
GILMER         CLEAR     26  24  91 CALM      30.58S
MINEOLA        CLEAR     28  27  93 CALM      30.60S
TYLER          CLEAR     29  23  78 N3        30.58S
LONGVIEW       CLEAR     26  22  84 CALM      30.57S
MARSHALL       CLEAR     25  22  89 CALM      30.59S
ATHENS         CLEAR     28  25  86 CALM      30.59S
PALESTINE      CLEAR     29  26  91 CALM      30.60S
JACKSONVILLE   CLEAR     31  26  79 N3        30.59R
HENDERSON      CLEAR     26  26  98 CALM      30.59R
NACOGDOCHES    CLEAR     27  21  80 CALM      30.58S
LUFKIN         CLEAR     31  23  72 N3        30.58R
$$

SUPPLEMENTAL OBSERVATIONS (CENTRAL)

CITY           SKY/WX    TMP DP  RH WIND       PRES   REMARKS
$$

SUPPLEMENTAL OBSERVATIONS (WEST)

CITY           SKY/WX    TMP DP  RH WIND       PRES   REMARKS
$$

SUPPLEMENTAL OBSERVATIONS (EAST)

CITY           SKY/WX    TMP DP  RH WIND       PRES   REMARKS
$$

SUPPLEMENTAL OBSERVATIONS ARE A COLLECTION OF AUTOMATED INSTRUMENTS
THAT ARE MAINTAINED BY A VARIETY OF FEDERAL AND STATE AGENCIES.
CERTAIN ELEMENTS...SUCH AS HUMIDITY VALUES AND SUSTAINED WIND
SPEEDS...MAY BE APPROXIMATED.



USA.gov is the U.S. government's official web portal to all federal, state and local government web resources and services.